EW6609 Weather Reports


Display with metric or nautical units.
time (UTC)temp
F
wind
direction
speed
MPH
gust
MPH
rain 1hr
in
rain 24hr
in
rain mn
in
humidity
%
barometer
mb
20190525113346 58 213 2.0 7.0 0.00 0.00 0.00 61 1016.0
20190525110352 57 173 1.0 3.0 0.00 0.00 0.00 67 1016.3
20190525100354 57 173 0.0 0.0 0.00 0.00 0.00 73 1016.8
20190525093350 60 261 1.0 7.0 0.00 0.00 0.00 63 1017.1
20190525090351 61 136 2.0 6.0 0.00 0.00 0.00 56 1016.8
20190525083353 61 124 2.0 5.0 0.00 0.00 0.00 56 1016.6
20190525080401 61 158 1.0 8.0 0.00 0.00 0.00 56 1016.6
20190525073345 61 182 1.0 5.0 0.00 0.00 0.00 56 1016.5
20190525070350 62 146 2.0 5.0 0.00 0.00 0.00 54 1016.6
20190525063357 64 159 1.0 6.0 0.00 0.00 0.00 52 1016.7
20190525060403 65 178 1.0 3.0 0.00 0.00 0.00 51 1016.9
20190525053354 66 153 1.0 4.0 0.00 0.00 0.00 50 1017.1
20190525050357 68 136 2.0 7.0 0.00 0.00 0.00 47 1017.2
20190525043343 70 249 2.0 7.0 0.00 0.00 0.00 45 1017.1
20190525040348 70 92 2.0 8.0 0.00 0.00 0.00 45 1017.1
20190525033401 69 209 3.0 8.0 0.00 0.00 0.00 45 1017.5
20190525030348 68 274 1.0 8.0 0.00 0.00 0.00 48 1018.0
20190525023352 67 49 3.0 10.0 0.00 0.00 0.00 48 1018.5
20190525020349 65 240 2.0 7.0 0.00 0.00 0.00 50 1019.0
20190525013350 64 5 2.0 6.0 0.00 0.00 0.00 52 1020.0
20190525010349 63 264 3.0 8.0 0.00 0.00 0.00 52 1020.6
20190525003347 61 205 2.0 5.0 0.00 0.00 0.00 55 1020.9
20190525000355 59 254 1.0 4.0 0.00 0.00 0.00 59 1020.9
20190524233349 55 192 1.0 3.0 0.00 0.00 0.00 67 1021.4
20190524230349 49 245 0.0 2.0 0.00 0.00 0.00 86 1021.7
20190524223355 44 188 0.0 1.0 0.00 0.00 0.00 90 1021.5
20190524220340 41 157 1.0 2.0 0.00 0.00 0.00 92 1021.5
20190524213402 41 173 0.0 0.0 0.00 0.00 0.00 91 1021.3
20190524210356 40 150 0.0 1.0 0.00 0.00 0.00 93 1021.5
20190524203340 40 88 0.0 2.0 0.00 0.00 0.00 91 1021.4
20190524200346 41 163 0.0 0.0 0.00 0.00 0.00 91 1021.4
20190524193348 40 163 0.0 0.0 0.00 0.00 0.00 91 1021.3
20190524190359 41 163 0.0 1.0 0.00 0.00 0.00 92 1021.4
20190524183353 41 147 0.0 1.0 0.00 0.00 0.00 92 1021.4
20190524180359 41 150 0.0 0.0 0.00 0.00 0.00 91 1021.1
20190524173401 41 184 0.0 1.0 0.00 0.00 0.00 91 1021.3
20190524170353 41 178 0.0 0.0 0.00 0.00 0.00 90 1021.5
20190524163351 41 178 0.0 0.0 0.00 0.00 0.00 89 1021.8
20190524160353 42 178 0.0 0.0 0.00 0.00 0.00 89 1022.2
20190524153341 42 178 0.0 0.0 0.00 0.00 0.00 88 1022.3
20190524150353 43 178 0.0 0.0 0.00 0.00 0.00 87 1022.4
20190524143348 44 167 0.0 2.0 0.00 0.00 0.00 86 1022.7
20190524140354 44 188 0.0 1.0 0.00 0.00 0.00 86 1023.0
20190524133359 44 206 0.0 0.0 0.00 0.00 0.00 84 1022.8
20190524130401 45 206 0.0 0.0 0.00 0.00 0.00 84 1022.9
20190524123354 46 205 0.0 0.0 0.00 0.00 0.00 81 1022.8
20190524120358 47 206 0.0 0.0 0.00 0.00 0.00 80 1022.8